FW9784 Weather Reports


time (UTC)temp
C
wind
direction
speed
KPH
gust
KPH
rain 1hr
cm
rain 24hr
cm
rain mn
cm
humidity
%
barometer
mb
20260507112525 12 197 0.0 0.0 0.00 0.00 0.00 94 1015.3
20260507112020 12 197 0.0 0.0 0.00 0.00 0.00 94 1015.3
20260507111515 12 197 0.0 0.0 0.00 0.00 0.00 94 1015.3
20260507111342 13 197 0.0 0.0 0.00 0.00 0.00 94 1015.4
20260507110514 13 197 0.0 0.0 0.00 0.00 0.00 94 1015.3
20260507110405 13 197 0.0 0.0 0.00 0.00 0.00 94 1015.4
20260507105810 13 197 0.0 0.0 0.00 0.00 0.00 94 1015.5
20260507105014 13 197 0.0 0.0 0.00 0.00 0.00 94 1015.6
20260507104513 13 197 0.0 0.0 0.00 0.00 0.00 94 1015.5
20260507104016 13 197 0.0 0.0 0.00 0.00 0.00 94 1015.7
20260507103511 13 197 0.0 0.0 0.00 0.00 0.00 94 1015.7
20260507103013 13 197 0.0 0.0 0.00 0.00 0.00 93 1015.7
20260507102832 13 197 0.0 0.0 0.00 0.00 0.00 94 1015.7
20260507102011 13 197 0.0 0.0 0.00 0.00 0.00 94 1015.8
20260507101920 13 197 0.0 0.0 0.00 0.00 0.00 94 1015.8
20260507101012 13 197 0.0 0.0 0.00 0.00 0.00 93 1015.8
20260507100512 13 197 0.0 0.0 0.00 0.00 0.00 93 1015.7
20260507100351 13 197 0.0 0.0 0.00 0.00 0.00 93 1015.7
20260507095502 13 197 0.0 0.0 0.00 0.00 0.00 93 1015.8
20260507095002 13 197 0.0 0.0 0.00 0.00 0.00 93 1015.8
20260507094503 13 197 0.0 0.0 0.00 0.00 0.00 94 1015.9
20260507094307 13 197 0.0 0.0 0.00 0.00 0.00 93 1016.0
20260507093502 13 197 0.0 0.0 0.00 0.00 0.00 93 1016.0
20260507093001 13 197 0.0 0.0 0.00 0.00 0.00 93 1016.1
20260507092502 13 197 0.0 0.0 0.00 0.00 0.00 93 1016.1
20260507092007 13 197 0.0 0.0 0.00 0.00 0.00 93 1016.2
20260507091501 13 197 0.0 0.0 0.00 0.00 0.00 93 1016.1
20260507091318 13 197 0.0 0.0 0.00 0.00 0.00 93 1016.2
20260507090501 13 197 0.0 0.0 0.00 0.00 0.00 93 1016.2
20260507085958 13 197 0.0 0.0 0.00 0.00 0.00 93 1016.3
20260507085453 13 197 0.0 0.0 0.00 0.00 0.00 93 1016.3
20260507084952 13 197 0.0 0.0 0.00 0.00 0.00 92 1016.3
20260507084451 13 197 0.0 0.0 0.00 0.00 0.00 93 1016.4
20260507083950 13 197 0.0 0.0 0.00 0.00 0.00 93 1016.4
20260507083449 13 197 0.0 0.0 0.00 0.00 0.00 93 1016.4
20260507083259 13 197 0.0 0.0 0.00 0.00 0.00 92 1016.5
20260507082444 13 197 0.0 0.0 0.00 0.00 0.00 92 1016.5
20260507081942 14 197 0.0 0.0 0.00 0.00 0.00 92 1016.6
20260507081442 14 197 0.0 0.0 0.00 0.00 0.00 92 1016.6
20260507081256 14 197 0.0 0.0 0.00 0.00 0.00 92 1016.6
20260507080432 14 197 0.0 0.0 0.00 0.00 0.00 92 1016.6
20260507075932 14 197 0.0 0.0 0.00 0.00 0.00 92 1016.6
20260507075429 14 197 0.0 0.0 0.00 0.00 0.00 92 1016.6
20260507074935 14 197 0.0 0.0 0.00 0.00 0.00 92 1016.6
20260507074429 14 197 0.0 0.0 0.00 0.00 0.00 92 1016.7
20260507074234 14 197 0.0 0.0 0.00 0.00 0.00 92 1016.7
20260507073430 14 197 0.0 0.0 0.00 0.00 0.00 92 1016.7
20260507072925 14 197 0.0 0.0 0.00 0.00 0.00 92 1016.7
20260507072758 14 197 0.0 0.0 0.00 0.00 0.00 92 1016.7
20260507071928 15 197 0.0 0.0 0.00 0.00 0.00 92 1016.7
20260507071423 15 197 0.0 0.0 0.00 0.00 0.00 92 1016.8
20260507071326 15 197 0.0 0.0 0.00 0.00 0.00 92 1016.8
20260507070420 15 197 0.0 0.0 0.00 0.00 0.00 91 1016.8
20260507070311 15 197 0.0 0.0 0.00 0.00 0.00 91 1016.9
20260507065728 15 197 0.0 0.0 0.00 0.00 0.00 92 1016.7
20260507064915 15 197 0.0 0.0 0.00 0.00 0.00 91 1016.9
20260507064414 15 197 0.0 3.2 0.00 0.00 0.00 91 1016.9
20260507063913 15 197 0.0 3.2 0.00 0.00 0.00 91 1016.9
20260507063411 15 197 0.0 3.2 0.00 0.00 0.00 91 1016.8
20260507062910 15 197 0.0 0.0 0.00 0.00 0.00 91 1016.9
20260507062411 15 197 0.0 0.0 0.00 0.00 0.00 91 1016.9
20260507062201 15 197 1.6 6.4 0.00 0.00 0.00 91 1016.8
20260507062047 15 197 1.6 6.4 0.00 0.00 0.00 91 1016.9
20260507060906 15 197 1.6 6.4 0.00 0.00 0.00 91 1016.9
20260507060405 15 234 1.6 4.8 0.00 0.00 0.00 91 1016.9
20260507055906 15 212 1.6 4.8 0.00 0.00 0.00 91 1016.9
20260507055405 15 0 1.6 8.0 0.00 0.00 0.00 91 1016.9
20260507054903 15 259 3.2 8.0 0.00 0.00 0.00 91 1016.9
20260507054721 15 215 3.2 6.4 0.00 0.00 0.00 91 1016.9
20260507053900 15 236 1.6 6.4 0.00 0.00 0.00 91 1016.9
20260507053359 15 0 1.6 4.8 0.00 0.00 0.00 91 1016.9
20260507053246 15 213 1.6 4.8 0.00 0.00 0.00 91 1016.9
20260507052400 15 213 1.6 4.8 0.00 0.00 0.00 91 1016.9
20260507051856 15 215 1.6 6.4 0.00 0.00 0.00 91 1016.9
20260507051400 15 223 1.6 6.4 0.00 0.00 0.00 91 1016.9
20260507050856 15 205 1.6 6.4 0.00 0.00 0.00 91 1016.9
20260507050355 15 216 1.6 8.0 0.00 0.00 0.00 91 1016.9
20260507045852 15 263 3.2 8.0 0.00 0.00 0.00 91 1016.8
20260507045353 15 247 1.6 6.4 0.00 0.00 0.00 91 1016.9
20260507044853 15 280 1.6 6.4 0.00 0.00 0.00 91 1016.8
20260507044351 15 211 1.6 6.4 0.00 0.00 0.00 91 1016.8
20260507043850 15 279 3.2 6.4 0.00 0.00 0.00 90 1016.8
20260507043734 15 213 3.2 11.3 0.00 0.00 0.00 90 1016.7
20260507042839 15 249 3.2 11.3 0.00 0.00 0.00 90 1016.7
20260507042330 15 207 3.2 8.0 0.00 0.00 0.00 90 1016.7
20260507041826 15 0 3.2 11.3 0.00 0.00 0.00 90 1016.7
20260507041327 15 189 3.2 11.3 0.00 0.00 0.00 90 1016.7
20260507040830 15 223 4.8 11.3 0.00 0.00 0.00 90 1016.7
20260507040742 15 221 3.2 9.7 0.00 0.00 0.00 90 1016.7
20260507035828 15 232 3.2 14.5 0.00 0.00 0.00 90 1016.6
20260507035327 15 0 4.8 14.5 0.00 0.00 0.00 90 1016.6
20260507034827 15 216 4.8 12.9 0.00 0.00 0.00 90 1016.5
20260507034625 15 261 4.8 12.9 0.00 0.00 0.00 90 1016.4
20260507033829 15 206 4.8 12.9 0.00 0.00 0.00 89 1016.4
20260507033328 15 213 4.8 12.9 0.00 0.00 0.00 89 1016.3
20260507032826 15 226 4.8 11.3 0.00 0.00 0.00 89 1016.2
20260507032327 15 263 6.4 14.5 0.00 0.00 0.00 89 1016.2
20260507031827 15 234 6.4 19.3 0.00 0.00 0.00 89 1016.1
20260507031331 15 237 3.2 19.3 0.00 0.00 0.00 88 1016.2
20260507030828 16 248 3.2 12.9 0.00 0.00 0.00 88 1016.1
20260507030329 16 251 6.4 12.9 0.00 0.00 0.00 88 1016.2
20260507025828 16 253 6.4 12.9 0.00 0.00 0.00 87 1016.0
20260507025327 16 257 8.0 19.3 0.00 0.00 0.00 86 1015.9
20260507024830 16 261 6.4 19.3 0.00 0.00 0.00 85 1015.9
20260507024606 16 254 3.2 12.9 0.00 0.00 0.00 84 1015.9
20260507024222 16 208 4.8 14.5 0.00 0.00 0.00 84 1015.8
20260507023326 16 198 4.8 14.5 0.00 0.00 0.00 84 1015.7
20260507022831 16 241 4.8 11.3 0.00 0.00 0.00 83 1015.7
20260507022328 16 0 6.4 22.5 0.00 0.00 0.00 83 1015.7
20260507021826 16 224 6.4 22.5 0.00 0.00 0.00 83 1015.7
20260507021328 17 213 6.4 17.7 0.00 0.00 0.00 83 1015.6
20260507020828 17 246 6.4 17.7 0.00 0.00 0.00 81 1015.5
20260507020659 17 0 6.4 16.1 0.00 0.00 0.00 81 1015.4
20260507015817 17 248 6.4 16.1 0.00 0.00 0.00 80 1015.3
20260507015311 17 0 6.4 16.1 0.00 0.00 0.00 79 1015.3
20260507014812 17 275 6.4 14.5 0.00 0.00 0.00 79 1015.3
20260507014636 17 185 6.4 14.5 0.00 0.00 0.00 79 1015.4
20260507013807 17 219 6.4 16.1 0.00 0.00 0.00 78 1015.4
20260507013309 17 200 6.4 16.1 0.00 0.00 0.00 78 1015.4
20260507012808 17 0 8.0 17.7 0.00 0.00 0.00 78 1015.4
20260507012306 18 225 8.0 17.7 0.00 0.00 0.00 79 1015.5
20260507012119 18 280 6.4 20.9 0.00 0.00 0.00 78 1015.4
20260507011306 18 230 8.0 20.9 0.00 0.00 0.00 78 1015.3
20260507010802 18 197 8.0 17.7 0.00 0.00 0.00 78 1015.3
20260507010302 18 267 6.4 17.7 0.00 0.00 0.00 78 1015.3
20260507010113 18 253 8.0 16.1 0.00 0.00 0.00 78 1015.4
20260507005306 18 201 8.0 19.3 0.00 0.00 0.00 76 1015.3
20260507004809 18 264 9.7 19.3 0.00 0.00 0.00 77 1015.3
20260507004303 18 257 9.7 20.9 0.00 0.00 0.00 77 1015.3
20260507004148 19 0 8.0 20.9 0.00 0.00 0.00 76 1015.2
20260507003305 19 223 8.0 17.7 0.00 0.00 0.00 76 1015.3
20260507002807 19 219 6.4 17.7 0.00 0.00 0.00 76 1015.3
20260507002301 19 258 8.0 16.1 0.00 0.00 0.00 76 1015.3
20260507001805 19 0 9.7 20.9 0.00 0.00 0.00 77 1015.4
20260507001302 19 232 9.7 20.9 0.00 0.00 0.00 77 1015.5
20260507000802 19 214 8.0 19.3 0.00 0.00 0.00 77 1015.4
20260507000300 19 0 8.0 19.3 0.00 0.00 0.00 77 1015.3
20260506235759 19 250 9.7 16.1 0.00 0.00 0.00 76 1015.3
20260506235306 20 0 8.0 19.3 0.00 0.00 0.00 75 1015.3
20260506234802 19 0 8.0 19.3 0.00 0.00 0.00 76 1015.3
20260506234258 19 226 8.0 19.3 0.00 0.00 0.00 74 1015.3
20260506233802 20 0 8.0 19.3 0.00 0.00 0.00 76 1015.3
20260506233635 20 265 8.0 17.7 0.00 0.00 0.00 75 1015.3
20260506232800 20 197 8.0 17.7 0.00 0.00 0.00 75 1015.4
20260506232257 20 217 8.0 16.1 0.00 0.00 0.00 75 1015.4
20260506231753 20 213 8.0 19.3 0.00 0.00 0.00 74 1015.5
20260506231254 20 0 8.0 19.3 0.00 0.00 0.00 73 1015.5
20260506230758 20 0 8.0 25.7 0.00 0.00 0.00 73 1015.5
20260506230258 20 0 8.0 25.7 0.00 0.00 0.00 74 1015.5
20260506225759 20 0 8.0 22.5 0.00 0.00 0.00 72 1015.6
20260506225254 20 0 8.0 22.5 0.00 0.00 0.00 73 1015.6
20260506224755 20 0 9.7 20.9 0.00 0.00 0.00 74 1015.7
20260506224636 20 0 9.7 20.9 0.00 0.00 0.00 73 1015.7
20260506223746 20 0 8.0 19.3 0.00 0.00 0.00 72 1015.8
20260506223609 20 0 8.0 19.3 0.00 0.00 0.00 72 1015.9
20260506222744 20 0 8.0 16.1 0.00 0.00 0.00 73 1015.9
20260506222241 20 0 8.0 16.1 0.00 0.00 0.00 73 1016.0
20260506221747 20 240 8.0 17.7 0.00 0.00 0.00 70 1016.0
20260506221243 20 248 8.0 17.7 0.00 0.00 0.00 71 1015.9
20260506220744 20 155 8.0 19.3 0.00 0.00 0.00 70 1016.1
20260506220416 20 196 8.0 22.5 0.00 0.00 0.00 71 1016.2
20260506220342 20 278 8.0 19.3 0.00 0.00 0.00 71 1016.3
20260506215607 20 205 6.4 22.5 0.00 0.00 0.00 71 1016.4
20260506214740 20 0 8.0 19.3 0.00 0.00 0.00 71 1016.5
20260506214237 20 0 8.0 19.3 0.00 0.00 0.00 72 1016.7
20260506213738 20 200 8.0 19.3 0.00 0.00 0.00 72 1016.7
20260506213237 20 0 8.0 19.3 0.00 0.00 0.00 71 1016.7
20260506212739 20 0 8.0 17.7 0.00 0.00 0.00 73 1016.7
20260506212234 20 0 8.0 19.3 0.00 0.00 0.00 72 1016.6
20260506211737 20 0 8.0 19.3 0.00 0.00 0.00 71 1016.8
20260506211236 20 0 8.0 17.7 0.00 0.00 0.00 72 1016.7
20260506210734 20 223 8.0 17.7 0.00 0.00 0.00 73 1016.8
20260506210230 20 176 8.0 17.7 0.00 0.00 0.00 72 1017.0
20260506205729 20 241 8.0 17.7 0.00 0.00 0.00 73 1016.8
20260506205230 20 236 8.0 17.7 0.00 0.00 0.00 72 1016.9
20260506204732 20 0 8.0 17.7 0.00 0.00 0.00 73 1016.9
20260506204228 20 0 8.0 17.7 0.00 0.00 0.00 72 1017.0
20260506203729 20 0 8.0 20.9 0.00 0.00 0.00 73 1017.0
20260506203229 20 263 8.0 20.9 0.00 0.00 0.00 72 1017.0
20260506202731 20 194 6.4 19.3 0.00 0.00 0.00 71 1017.0
20260506202229 20 0 6.4 16.1 0.00 0.00 0.00 71 1017.1
20260506201731 20 232 8.0 17.7 0.00 0.00 0.00 73 1017.2
20260506201230 20 195 8.0 17.7 0.00 0.00 0.00 72 1017.3
20260506200734 20 0 6.4 14.5 0.00 0.00 0.00 72 1017.3
20260506200524 20 0 6.4 16.1 0.00 0.00 0.00 73 1017.3
20260506195730 20 214 8.0 19.3 0.00 0.00 0.00 73 1017.4
20260506195627 20 206 8.0 19.3 0.00 0.00 0.00 73 1017.4
20260506194725 20 0 8.0 17.7 0.00 0.00 0.00 74 1017.5
20260506194216 19 192 8.0 19.3 0.00 0.00 0.00 74 1017.6
20260506193717 19 217 8.0 19.3 0.00 0.00 0.00 73 1017.6
20260506193547 19 223 8.0 17.7 0.00 0.00 0.00 74 1017.5
20260506192717 19 209 8.0 22.5 0.00 0.00 0.00 73 1017.7
20260506192217 20 221 8.0 22.5 0.00 0.00 0.00 73 1017.7
20260506191715 20 252 8.0 16.1 0.00 0.00 0.00 72 1017.7
20260506191215 20 0 6.4 16.1 0.00 0.00 0.00 72 1017.8
20260506190716 20 296 8.0 19.3 0.00 0.00 0.00 73 1017.8
20260506190215 20 220 8.0 19.3 0.00 0.00 0.00 72 1017.8
20260506185713 20 217 6.4 12.9 0.00 0.00 0.00 73 1017.8
20260506185213 20 215 6.4 17.7 0.00 0.00 0.00 72 1017.8
20260506184713 19 219 8.0 17.7 0.00 0.00 0.00 73 1017.8
20260506184218 19 271 8.0 16.1 0.00 0.00 0.00 72 1017.8
20260506183714 19 207 6.4 16.1 0.00 0.00 0.00 72 1017.8
20260506183209 20 0 6.4 16.1 0.00 0.00 0.00 71 1017.8
20260506182709 20 180 8.0 19.3 0.00 0.00 0.00 71 1017.8
20260506182206 20 246 8.0 19.3 0.00 0.00 0.00 70 1017.9
20260506181703 20 208 6.4 12.9 0.00 0.00 0.00 71 1017.9
20260506181207 20 252 6.4 12.9 0.00 0.00 0.00 70 1017.9
20260506180703 20 250 6.4 16.1 0.00 0.00 0.00 70 1018.0
20260506180652 20 197 6.4 14.5 0.00 0.00 0.00 69 1018.0
20260506180646 20 223 8.0 16.1 0.00 0.00 0.00 71 1017.9
20260506180636 20 220 8.0 14.5 0.00 0.00 0.00 70 1018.0
20260506174703 20 207 4.8 14.5 0.00 0.00 0.00 70 1018.0
20260506174204 20 0 4.8 11.3 0.00 0.00 0.00 70 1018.0
20260506174111 20 237 4.8 12.9 0.00 0.00 0.00 69 1017.9
20260506173221 20 215 4.8 12.9 0.00 0.00 0.00 70 1017.8
20260506172715 20 256 3.2 9.7 0.00 0.00 0.00 70 1017.9
20260506172156 20 245 3.2 9.7 0.00 0.00 0.00 67 1017.8
20260506171653 20 160 3.2 9.7 0.00 0.00 0.00 67 1017.8
20260506171150 20 125 3.2 11.3 0.00 0.00 0.00 68 1017.8
20260506171038 20 100 3.2 11.3 0.00 0.00 0.00 68 1017.8
20260506170147 20 182 1.6 9.7 0.00 0.00 0.00 70 1017.8
20260506165655 19 123 1.6 4.8 0.00 0.00 0.00 71 1017.8
20260506165202 19 0 3.2 11.3 0.00 0.00 0.00 70 1017.8
20260506164657 19 118 3.2 11.3 0.00 0.00 0.00 70 1017.8
20260506164532 19 69 3.2 8.0 0.00 0.00 0.00 71 1017.8
20260506164052 19 50 3.2 8.0 0.00 0.00 0.00 73 1017.8
20260506163154 18 193 3.2 9.7 0.00 0.00 0.00 73 1017.8
20260506162650 18 166 3.2 9.7 0.00 0.00 0.00 73 1017.8
20260506162146 18 82 1.6 6.4 0.00 0.00 0.00 74 1017.9
20260506161643 18 53 1.6 6.4 0.00 0.00 0.00 75 1017.9
20260506161146 18 64 1.6 6.4 0.00 0.00 0.00 75 1017.8
20260506161036 18 200 1.6 8.0 0.00 0.00 0.00 76 1018.0
20260506160145 17 175 3.2 8.0 0.00 0.00 0.00 77 1017.9
20260506155834 17 66 3.2 9.7 0.00 0.00 0.00 78 1018.1
20260506155755 17 188 3.2 8.0 0.00 0.00 0.00 77 1017.9
20260506154641 17 168 3.2 9.7 0.00 0.00 0.00 78 1017.9
20260506154143 17 86 3.2 9.7 0.00 0.00 0.00 78 1017.9
20260506154053 17 141 3.2 11.3 0.00 0.00 0.00 79 1017.9
20260506153143 17 113 4.8 11.3 0.00 0.00 0.00 80 1017.9
20260506152640 17 168 3.2 8.0 0.00 0.00 0.00 80 1017.9
20260506152139 16 82 3.2 9.7 0.00 0.00 0.00 81 1017.9
20260506151639 16 187 3.2 9.7 0.00 0.00 0.00 81 1018.0
20260506151513 16 77 1.6 6.4 0.00 0.00 0.00 82 1018.0
20260506150639 16 109 3.2 6.4 0.00 0.00 0.00 82 1017.9
20260506150137 16 112 3.2 6.4 0.00 0.00 0.00 83 1017.9
20260506145932 15 106 3.2 8.0 0.00 0.00 0.00 83 1018.0
20260506145138 15 66 3.2 9.7 0.00 0.00 0.00 83 1018.0
20260506144638 15 114 3.2 9.7 0.00 0.00 0.00 83 1017.9
20260506144137 15 79 4.8 8.0 0.00 0.00 0.00 84 1018.0
20260506143638 15 60 4.8 12.9 0.00 0.00 0.00 84 1017.9
20260506143138 15 96 4.8 12.9 0.00 0.00 0.00 84 1018.0
20260506142638 15 60 3.2 6.4 0.00 0.00 0.00 85 1017.8
20260506142136 15 84 3.2 6.4 0.00 0.00 0.00 85 1017.9
20260506141638 14 71 3.2 6.4 0.00 0.00 0.00 86 1017.9
20260506141511 14 64 3.2 4.8 0.00 0.00 0.00 87 1017.9
20260506140952 13 69 3.2 4.8 0.00 0.00 0.00 88 1017.8
20260506140141 13 84 1.6 4.8 0.00 0.00 0.00 89 1017.7
20260506135641 13 49 0.0 3.2 0.00 0.00 0.00 90 1017.6
20260506135136 13 111 0.0 0.0 0.00 0.00 0.00 91 1017.6
20260506134637 12 111 0.0 0.0 0.00 0.00 0.00 92 1017.6
20260506134137 12 174 0.0 0.0 0.00 0.00 0.00 93 1017.7
20260506133637 12 174 0.0 0.0 0.00 0.00 0.00 93 1017.6
20260506133328 11 174 0.0 0.0 0.00 0.00 0.00 92 1017.5
20260506133239 11 174 0.0 0.0 0.00 0.00 0.00 93 1017.7
20260506132135 11 174 0.0 0.0 0.00 0.00 0.00 92 1017.4
20260506131634 11 174 0.0 0.0 0.00 0.00 0.00 92 1017.4
20260506131136 11 174 0.0 0.0 0.00 0.00 0.00 92 1017.4
20260506130634 11 174 0.0 0.0 0.00 0.00 0.00 92 1017.1
20260506130136 11 174 0.0 0.0 0.00 0.00 0.00 92 1017.1
20260506130022 11 174 0.0 0.0 0.00 0.00 0.00 92 1016.9
20260506125139 11 174 0.0 0.0 0.00 0.00 0.00 92 1017.1
20260506124631 11 174 0.0 0.0 0.00 0.00 0.00 92 1017.0
20260506124144 11 174 0.0 0.0 0.00 0.00 0.00 92 1016.9
20260506123631 11 174 0.0 0.0 0.00 0.00 0.00 92 1016.8
20260506123138 11 174 0.0 0.0 0.00 0.00 0.00 91 1016.8
20260506122630 11 174 0.0 0.0 0.00 0.00 0.00 91 1016.8
20260506122137 11 174 0.0 0.0 0.00 0.00 0.00 91 1016.8
20260506121631 11 174 0.0 0.0 0.00 0.00 0.00 91 1016.7
20260506121130 11 174 0.0 0.0 0.00 0.00 0.00 91 1016.8
20260506120624 11 174 0.0 0.0 0.00 0.00 0.00 91 1016.8
20260506120344 11 174 0.0 0.0 0.00 0.00 0.00 91 1016.7
20260506120236 11 174 0.0 0.0 0.00 0.00 0.00 91 1016.7
20260506115421 11 174 0.0 0.0 0.00 0.00 0.00 91 1016.7
20260506114621 11 174 0.0 0.0 0.00 0.00 0.00 91 1016.7
20260506114119 11 174 0.0 0.0 0.00 0.00 0.00 91 1016.7
20260506113617 11 174 0.0 0.0 0.00 0.00 0.00 91 1016.5
20260506113508 11 173 0.0 0.0 0.00 0.00 0.00 91 1016.6